This is the latest recevied weather packets stored in our database for station/object JF7BTK-10. If no packets are shown the sender has not sent any weather packets the latest 10 day(s).
| Time | Temp. | Humidity | Pressure | Rain* | Wind** | Luminosity | Snow |
|---|---|---|---|---|---|---|---|
| 1788637388 | 11.11° C | 99% | 1013.1 hPa | 0 mm | - | - | - |
| 1788636488 | 11.67° C | 99% | 1013.1 hPa | 0 mm | - | - | - |
| 1788635588 | 12.22° C | 99% | 1013.2 hPa | 0 mm | - | - | - |
| 1788634689 | 12.22° C | 99% | 1013.2 hPa | 0 mm | - | - | - |
| 1788633789 | 12.22° C | 99% | 1013.3 hPa | 0 mm | - | - | - |
| 1788632888 | 12.22° C | 99% | 1013.3 hPa | 0 mm | - | - | - |
| 1788631989 | 12.22° C | 98% | 1013.4 hPa | 0 mm | - | - | - |
| 1788631089 | 12.22° C | 97% | 1013.1 hPa | 0 mm | - | - | - |
| 1788630189 | 12.22° C | 96% | 1013 hPa | 0 mm | - | - | - |
| 1788629288 | 12.78° C | 94% | 1013.1 hPa | 0 mm | - | - | - |
| 1788628389 | 12.78° C | 93% | 1013.2 hPa | 0 mm | - | - | - |
| 1788627488 | 13.33° C | 93% | 1013.1 hPa | 0 mm | - | - | - |
| 1788626590 | 13.33° C | 92% | 1013.2 hPa | 0 mm | - | - | - |
| 1788625689 | 13.33° C | 93% | 1013.1 hPa | 0 mm | - | - | - |
| 1788624788 | 13.33° C | 93% | 1013.3 hPa | 0 mm | - | - | - |
| 1788623889 | 13.33° C | 93% | 1013.4 hPa | 0 mm | - | - | - |
| 1788622988 | 13.89° C | 94% | 1013.3 hPa | 0 mm | - | - | - |
| 1788622089 | 13.89° C | 94% | 1013.4 hPa | 0 mm | - | - | - |
| 1788621188 | 13.89° C | 93% | 1013.4 hPa | 0 mm | - | - | - |
| 1788620289 | 13.33° C | 92% | 1013.3 hPa | 0 mm | - | - | - |
| 1788619388 | 13.33° C | 90% | 1013.3 hPa | 0 mm | - | - | - |
| 1788618489 | 13.89° C | 88% | 1013.5 hPa | 0 mm | - | - | - |
| 1788617588 | 13.89° C | 86% | 1013.4 hPa | 0 mm | - | - | - |
| 1788616690 | 15° C | 84% | 1013.3 hPa | 0 mm | - | - | - |
| 1788615787 | 16.11° C | 86% | 1013.1 hPa | 0 mm | - | - | - |
* Rain latest hour (hover to see other rain measurements)
** Current wind speed in m/s (hover to see current wind gust speed)